Location: Unspecified
(39.5650°N, 75.5970°W)
Time: 08:58:06
(UTC+00:00)

Daily predictions for brighter satellites

Satellite Brightness Start Highest point End
(mag) Time Altitude Azimuth Time Altitude Azimuth Time Altitude Azimuth
Cosmos 2208 Rocket 4.5 22:57:43 10° SSW 23:03:08 73° WNW 23:08:37 10° NNE
Milstar 3 Cent rocket 3.9 22:59:15 10° WSW 23:04:25 26° S 23:08:21 10° SE
USA 229 DEB 4.0 22:57:07 10° NW 23:04:26 88° SW 23:11:57 10° SSE
USA 229 4.0 22:57:13 10° NW 23:04:33 89° SW 23:12:03 10° SSE
NOSS 3-1 (A) 4.3 22:58:33 10° NNW 23:06:03 56° NE 23:14:26 10° SE
GEOS 3 Rocket 3.7 23:01:21 10° SE 23:06:38 83° NE 23:11:54 10° NNW
Cosmos 841 Rocket 3.5 23:02:54 10° S 23:07:59 64° ESE 23:13:04 10° NNE
Ariane Rocket 3.3 23:03:13 10° SE 23:08:03 45° ENE 23:12:54 10° N
CSL-04 Rocket 3.7 23:03:40 10° SSE 23:09:10 81° ENE 23:14:38 10° NNW
SJ 16-02 1.8 23:05:21 10° N 23:09:32 39° ENE 23:13:40 10° SE
COSMO-SKYMED 1 2.6 23:09:36 10° NNE 23:13:58 90° ENE 23:18:18 10° SSW
Cosmos 1633 3.9 23:12:16 10° SE 23:14:59 20° E 23:17:42 10° NE
Cosmos 1937 Rocket 3.6 23:09:44 10° NNW 23:15:05 88° ENE 23:20:21 10° SSE
CSL-04 Debris 4.3 23:10:35 10° SSE 23:16:04 90° E 23:21:36 10° NNW
Cosmos 1606 4.2 23:12:22 10° NNW 23:16:06 43° W 23:19:47 10° SSW
H-2A R/B 2.9 23:14:25 10° S 23:18:04 73° W 23:21:47 10° NNW
Cosmos 1745 Rocket 4.4 23:13:28 10° N 23:19:49 72° W 23:26:07 10° S
ERBS 3.7 23:18:28 10° WSW 23:21:39 36° NW 23:24:49 10° NNE
Cosmos 1862 Rocket 3.5 23:17:29 10° N 23:21:56 71° E 23:26:17 10° SSE
Cosmos 1812 4.2 23:21:10 10° NNE 23:23:45 17° ENE 23:26:20 10° ESE
Cosmos 1709 Rocket 4.0 23:17:45 10° N 23:24:03 63° E 23:30:13 10° SSE
Cosmos 2242 Rocket 3.5 23:20:15 10° N 23:24:38 62° E 23:28:58 10° SSE
Cosmos 1933 Rocket 3.5 23:23:07 10° S 23:27:30 71° E 23:31:56 10° NNE
Cosmos 2298 Rocket 4.0 23:24:09 10° NNW 23:29:29 71° ENE 23:34:47 10° SSE
Cosmos 1470 Rocket 3.7 23:25:40 10° S 23:30:03 82° W 23:34:27 10° N
Cosmos 2084 Rocket 3.8 23:26:17 10° NW 23:30:28 67° WSW 23:34:33 10° SSE
USA 116 4.3 23:29:10 10° N 23:32:40 51° WNW 23:35:49 10° SSW
Meteor 2-6 Rocket 4.2 23:29:00 10° N 23:34:26 86° W 23:39:49 10° S
DMSP B5D1-3 4.5 23:32:22 10° NNE 23:37:31 72° ESE 23:42:37 10° S
Meteor 1-27 Rocket 3.8 23:33:54 10° N 23:39:31 59° ENE 23:45:13 10° SSE
YAOGAN 6 3.0 23:36:15 10° SE 23:39:34 38° ENE 23:42:58 10° N
Cosmos 1943 3.8 23:36:59 10° NNW 23:42:34 61° WSW 23:48:05 10° S
SJ-6B 4.3 23:42:27 19° ENE 23:42:53 19° ENE 23:45:47 10° NNE
USA 234 3.9 23:37:15 10° SSE 23:43:40 56° SW 23:50:06 10° NW
Cosmos 1242 Rocket 2.8 23:41:50 10° SSW 23:45:15 66° W 23:48:42 10° N
IRS-1A Rocket 4.2 23:39:49 10° SSE 23:45:19 75° ENE 23:50:56 10° N
Cosmos 2074 Rocket 4.4 23:41:13 10° N 23:46:59 38° ENE 23:52:44 10° SE
Meteor 2-14 Rocket 4.4 23:41:16 10° N 23:47:17 57° E 23:53:13 10° SSE
CZ-2D R/B 3.6 23:44:08 10° SE 23:47:43 42° ENE 23:51:19 10° N
Cosmos 1862 3.7 23:45:13 10° SSW 23:49:11 65° W 23:53:13 10° N
Cosmos 2184 Rocket 4.4 23:43:28 10° N 23:49:25 39° ENE 23:55:17 10° SE
Cosmos 1844 Rocket 2.9 23:49:07 10° S 23:54:29 46° ESE 23:59:51 10° NE
